Preview of NWS' New Version of Forecast
This preview is not operational and should not be used for support decisions.
Latest weather observations around

Texarkana, Texarkana Regional-Webb Field (KTXK)

Using English Units (Switch to International System of Units)
Date/ Time (CDT) Wind (mph) Vis. (mi) Weather Sky Cond. Temp (°F) Rel. Humidity Wind Chill (°F) Heat Index (°F) Pressure Precip. (in)
Air Dwpt 6 hour Altimeter (inHg) Sea level (inHg) 1 hr 3 hr 6 hr
Max Min
Apr 22 23:53 NW 8 10 Cloudy OVC019 54 50     86%     29.98 29.97      
Apr 22 21:53 WNW 8 10 Cloudy OVC023 54 49     83%     29.99 29.98      
Apr 22 20:53 NW 9 10 Cloudy OVC023 55 49     80%     29.98 29.98      
Apr 22 20:13 NW 7 10 Cloudy BKN024 OVC034 55 50     83%     29.97        
Apr 22 19:53 NW 11 10 Mostly Cloudy FEW023 SCT037 BKN047 55 49     80%     29.97 29.96      
Apr 22 19:13 WNW 14 10 Cloudy FEW025 SCT030 OVC041 57 48     72%     29.96        
Apr 22 18:53 NW 11 10 Cloudy BKN027 BKN032 OVC043 57 49     74%     29.96 29.95      
Apr 22 18:49 WNW 10 10 Cloudy BKN027 OVC043 57 48     72%     29.96        
Apr 22 17:53 WNW 10 10 Cloudy FEW028 OVC048 60 49     67%     29.95 29.94      
Apr 22 16:53 WNW 11 10 Cloudy OVC041 59 48     67%     29.96 29.95      
Apr 22 15:53 WNW 15 10 Cloudy OVC030 58 48     70%     29.96 29.96      
Apr 22 15:19 WNW 13 10 Cloudy OVC030 58 48     70%     29.97        
Apr 22 15:06 W 18 10 Cloudy BKN026 OVC030 59 49     69%     29.97        
Apr 22 14:53 WNW 13 10 Cloudy SCT023 OVC030 60 51     72%     29.97 29.96      
Apr 22 14:34 WNW 13 10 Cloudy SCT024 OVC030 58 50     75%     29.97        
Apr 22 13:53 W 15 10 Cloudy BKN018 OVC024 57 51     81%     29.98 29.97      
Apr 22 12:53 WNW 14 10 Cloudy OVC018 56 51     84%     29.98 29.98      
Apr 22 11:53 NW 16 10 Cloudy BKN016 OVC020 56 52     87%     29.99 29.98      
Apr 22 11:50 WNW 15 10 Cloudy BKN016 OVC020 55 52     88%     29.99        
Apr 22 10:53 WNW 10 10 Cloudy OVC012 56 53     90%     29.98 29.97      
Apr 22 10:48 WNW 13 10 Cloudy OVC012 55 54     94%     29.98        
Apr 22 09:53 WNW 14 10 Cloudy OVC009 56 54     93%     29.96 29.96      
Apr 22 09:40 WNW 13 10 Cloudy OVC009 56 54     93%     29.96        
Apr 22 09:28 WNW 11 10 Cloudy OVC010 56 55     97%     29.96        
Apr 22 08:53 WNW 15 10 Cloudy OVC006 56 55     97%     29.96 29.96      
Apr 22 07:53 WNW 10 9 Cloudy OVC006 57 57     100%     29.96 29.96      
Apr 22 07:29 WNW 9 7 Cloudy OVC005 57 57     100%     29.96        
Apr 22 06:53 WNW 9 4 Fog/Mist OVC004 57 57     100%     29.95 29.94      
Apr 22 06:36 WNW 7 3 Fog/Mist OVC002 56 56     100%     29.95        
Apr 22 06:26 W 8 2 Fog/Mist OVC002 57 57     100%     29.95        
Apr 22 06:18 W 9 1.25 Fog/Mist OVC002 57 57     100%     29.95        
Apr 22 05:53 WNW 6 1.5 Fog/Mist OVC002 57 57     100%     29.94 29.93      
Apr 22 05:29 WNW 7 2.5 Fog/Mist OVC002 57 57     100%     29.94        
Apr 22 05:08 W 8 6 Fog/Mist OVC004 57 57     100%     29.94        
Apr 22 04:53 W 7 10 Cloudy OVC005 57 57     100%     29.94 29.93      
Apr 22 04:20 WSW 5 10 Cloudy OVC005 57 57     100%     29.93        
Apr 22 04:05 W 5 10 Cloudy OVC004 57 57     100%     29.94        
Apr 22 02:53 Calm 9 Cloudy OVC006 57 57     100%     29.92 29.91      
Apr 22 01:53 Calm 7 Cloudy OVC008 57 57     100%     29.94 29.93      
Apr 22 01:23 ENE 3 9 Cloudy OVC009 57 57     100%     29.96        
Apr 22 01:09 N 3 10 Cloudy BKN010 OVC038 57 57     100%     29.97        
Apr 22 00:53 NE 3 10 Mostly Cloudy FEW009 BKN038 57 57     100%     29.97 29.96     1
Apr 21 23:53 ENE 6 10 Clear CLR 57 57     100%     29.97 29.96 0    
Apr 21 22:53 E 5 10 Mostly Cloudy FEW007 SCT060 BKN120 58 58     100%     29.96 29.96 0    
Apr 21 22:21 6 7 Rain FEW005 BKN090 OVC110 58 58     100%     29.95   0    
Apr 21 22:06 7 6 Rain and Fog/Mist SCT030 BKN075 OVC110 57 57     100%     29.93   0    
Apr 21 21:59 7 4 Light Rain and Fog/Mist FEW005 BKN032 OVC080 57 57     100%     29.95   0    
Apr 21 21:55 E 8 2 Heavy Rain and Fog/Mist FEW005 BKN033 OVC090 57 57     100%     29.96   0    
Apr 21 21:53 ESE 10 1.75 Thunderstorms and Heavy Rain and Fog/Mist FEW005 BKN031 57 57     100%     29.96 29.95 0 0  
Apr 21 21:43 ESE 11 1.25 Thunderstorms and Heavy Rain and Fog/Mist FEW006 OVC027 57 57     100%     29.98   0    
Apr 21 21:35 NNW 11 1.75 Thunderstorms and Heavy Rain and Fog/Mist SCT006 BKN033 OVC045 57 57     100%         0    
Apr 21 21:26 E 8 1.5 Thunderstorms and Heavy Rain and Fog/Mist SCT004 SCT012 OVC028 57 57     100%     29.99   0    
Apr 21 21:23 E 7 1.75 Thunderstorms and Heavy Rain and Fog/Mist SCT004 SCT012 OVC030 57 57     100%     29.99   0    
Apr 21 21:18 ENE 9 2 Thunderstorms and Heavy Rain and Fog/Mist SCT004 BKN014 OVC032 57 57     100%     29.99   0    
Apr 21 21:12   1.75 Thunderstorms and Heavy Rain and Fog/Mist BKN004 BKN010 OVC016 57 57     100%     29.98   0    
Apr 21 20:53 NNE 8 2 Heavy Rain and Fog/Mist OVC004 57 57     100%     29.97 29.96 0    
Apr 21 20:41 5 2.5 Heavy Rain and Fog/Mist BKN004 BKN011 OVC016 57 57     100%     29.97   0    
Apr 21 20:34 NNE 7 5 Light Rain and Fog/Mist SCT004 BKN011 OVC016 57 57     100%     29.97   0    
Apr 21 19:53 ENE 7 4 Light Rain and Fog/Mist FEW004 BKN015 OVC050 57 57     100%     29.96 29.95 0    
Apr 21 19:40 N 8 5 Light Rain and Fog/Mist FEW004 BKN022 OVC040 57 57     100%     29.97   0    
Apr 21 19:23 ENE 7 3 Light Rain and Fog/Mist SCT026 OVC035 57 57     100%     29.96   0    
Apr 21 18:53 N 9 2 Rain and Fog/Mist OVC026 57 57     100%     29.98 29.98 0   0
Apr 21 18:31 NW 10 2 Rain and Fog/Mist BKN027 OVC034 58 58     100%     29.98   0    
Apr 21 18:29 NW 10 1.75 Heavy Rain and Fog/Mist BKN030 OVC034 58 58     100%     29.98   0    
Apr 21 17:58 E 6 3 Light Rain and Fog/Mist BKN037 BKN047 OVC055 58 56     93%     29.95   0    
Apr 21 17:53 E 5 1.75 Heavy Rain and Fog/Mist FEW032 BKN041 OVC080 58 56     93%     29.96 29.95 0    
Apr 21 16:53 NE 3 7 Rain SCT039 BKN060 OVC090 61 57     87%     29.99 29.98 0    
Apr 21 16:44 ENE 3 9 Light Rain FEW041 OVC060 59 57     93%     29.98   0    
Apr 21 16:21 Calm 10 Thunderstorms and Rain SCT041 OVC065 64 53     67%     30   0    
Apr 21 15:53 NNE 5 10 Cloudy BKN041 BKN049 OVC070 64 54     70%     29.99 29.98      
Apr 21 14:53 6 10 Clear CLR 66 50     56%     30.01 30.01      
Apr 21 13:53 SE 9 10 Clear CLR 67 48     51%     30.02 30.02      
Apr 21 12:53 SE 9 10 Clear CLR 69 48     47%     30.02 30.01      
Apr 21 11:53 SE 11 10 Clear CLR 65 47     52%     30.07 30.07      
Apr 21 10:53 SE 9 10 Clear CLR 63 47     56%     30.11 30.1      
Apr 21 09:53 Calm 10 Clear CLR 59 48     67%     30.13 30.13      
Apr 21 08:53 E 5 10 Clear CLR 55 46     72%     30.13 30.12      
Apr 21 07:53 E 5 10 Clear CLR 51 45     79%     30.13 30.12      
Apr 21 06:53 ENE 3 10 Clear CLR 47 43     86% 46   30.14 30.13      
Apr 21 05:53 ENE 6 10 Clear CLR 47 43     86% 44   30.12 30.11      
Apr 21 04:53 ENE 3 10 Clear CLR 47 42     83% 46   30.13 30.12      
Apr 21 03:53 E 3 10 Clear CLR 48 42     80% 47   30.12 30.11      
Apr 21 02:53 E 3 10 Clear CLR 45 42     90% 44   30.15 30.14      
Apr 21 01:53 Calm 10 Clear CLR 45 42     90%     30.16 30.15      
Apr 21 00:53 Calm 10 Clear CLR 50 40     68%     30.15 30.14      
Apr 20 23:53 Calm 10 Clear CLR 50 40     68%     30.17 30.16      
Apr 20 22:53 ESE 6 10 Clear CLR 54 39     57%     30.16 30.16      
Apr 20 21:53 SE 5 10 Clear CLR 55 38     52%     30.18 30.17      
Apr 20 20:53 ESE 7 10 Clear CLR 59 36     42%     30.15 30.14      
Apr 20 19:53 ESE 5 10 Clear CLR 61 37     41%     30.16 30.15      
Apr 20 18:53 ESE 5 10 Clear CLR 65 37     36%     30.15 30.14      
Apr 20 17:53 E 8 10 Clear CLR 66 37     34%     30.16 30.16      
Apr 20 16:53 ENE 9 10 Clear CLR 66 38     36%     30.18 30.17      
Apr 20 16:02 ENE 7 10 Clear CLR 66 39     37%     30.21        
Apr 20 15:53 SE 9 10 Clear CLR 65 38     37%     30.21 30.21      
Apr 20 14:53 E 8 10 Clear CLR 65 39     38%     30.25 30.24      
Apr 20 13:53 ENE 10 10 Clear CLR 62 39     43%     30.29 30.29      
Apr 20 13:20 NE 14 10 Clear CLR 61 39     44%     30.3        
Apr 20 12:53 E 10 10 Clear CLR 60 39     46%     30.32 30.32      
Apr 20 11:53 ENE 11 10 Clear CLR 57 37     47%     30.34 30.34      
Apr 20 10:53 ESE 9 10 Clear CLR 54 37     53%     30.37 30.36      
Apr 20 09:53 7 10 Clear CLR 51 38     61%     30.37 30.37      
Apr 20 08:53 7 10 Clear CLR 48 37     66% 45   30.38 30.38      
Apr 20 07:53 ENE 8 10 Clear CLR 44 38     79% 40   30.38 30.38      
Apr 20 06:53 ENE 7 10 Clear CLR 42 37     82% 38   30.36 30.35      
Apr 20 05:53 NE 6 10 Clear CLR 42 37     82% 38   30.35 30.34      
Apr 20 04:53 ENE 3 10 Clear CLR 43 37     79% 41   30.34 30.33      
Apr 20 03:53 ENE 3 10 Clear CLR 43 37     79% 41   30.33 30.33      
Apr 20 02:53 ENE 5 10 Clear CLR 44 37     76% 41   30.33 30.32      
Apr 20 01:53 E 3 10 Clear CLR 46 38     73% 45   30.33 30.33      
Apr 20 00:53 E 6 10 Clear CLR 48 39     71% 45   30.33 30.33      
Jun 12 06:28 SE 5 8 Cloudy SCT008 OVC028 74 74     100%   76 29.98        
Jun 11 20:53 SSE 8 10 Mostly Cloudy FEW043 BKN060 79 73     82%   82 29.96 29.94      
Jun 11 10:53 S 9 10 Clear CLR 82 67     60%   85 30.01 29.99      
Jun 11 03:53 S 8 10 Clear CLR 72 69     91%   73 29.96 29.94      
Jun 10 20:53 SE 5 10 Clear CLR 75 65     71%   76 29.91 29.9      
Jun 10 18:53 SSE 9 10 Clear CLR 82 62     51%   83 29.91 29.89      
Jun 10 14:53 S 11 10 Mostly Clear FEW048 83 64     53%   84 29.95 29.93      
Jun 09 18:53 ESE 3 10 Mostly Clear FEW055 79 61     54%   79 29.89 29.87      
Jun 06 06:15 NNE 5 10 Partly Cloudy FEW008 SCT023 69 69     100%     29.81        
Jun 06 02:32 NNE 3 10 Cloudy SCT010 OVC016 70 70     100%     29.8        
Jun 05 20:22 ENE 6 10 Mostly Cloudy SCT016 BKN022 BKN030 74 72     94%   75 29.76        
Jun 05 17:53 N 10 10 Mostly Clear FEW036 82 70     67%   86 29.72 29.71